Year,Month,Day,Hour,Minute,Value (Times are PST for temperature in C)
2015,06,19,03,06,14.30
2015,06,19,03,07,14.30
2015,06,19,03,08,14.30
2015,06,19,03,09,14.30
2015,06,19,03,10,14.30
2015,06,19,03,11,14.30
2015,06,19,03,12,14.30
2015,06,19,03,13,14.30
2015,06,19,03,14,14.30
2015,06,19,03,15,14.30
2015,06,19,03,16,14.30
2015,06,19,03,17,14.20
2015,06,19,03,18,14.20
2015,06,19,03,19,14.20
2015,06,19,03,20,14.20
2015,06,19,03,21,14.20
2015,06,19,03,22,14.20
2015,06,19,03,23,14.10
2015,06,19,03,24,14.10
2015,06,19,03,25,14.10
2015,06,19,03,26,14.10
2015,06,19,03,27,14.10
2015,06,19,03,28,14.00
2015,06,19,03,29,14.00
2015,06,19,03,30,14.00
2015,06,19,03,31,14.00
2015,06,19,03,32,14.00
2015,06,19,03,33,14.00
2015,06,19,03,34,14.00
2015,06,19,03,35,14.00
2015,06,19,03,36,14.00
2015,06,19,03,37,14.00
2015,06,19,03,38,14.00
2015,06,19,03,39,14.10
2015,06,19,03,40,14.10
2015,06,19,03,41,14.10
2015,06,19,03,42,14.10
2015,06,19,03,43,14.10
2015,06,19,03,44,14.20
2015,06,19,03,45,14.20
2015,06,19,03,46,14.20
2015,06,19,03,47,14.20
2015,06,19,03,48,14.20
2015,06,19,03,49,14.20
2015,06,19,03,50,14.20
2015,06,19,03,51,14.20
2015,06,19,03,52,14.20
2015,06,19,03,53,14.10
2015,06,19,03,54,14.10
2015,06,19,03,55,14.10
2015,06,19,03,56,14.10
2015,06,19,03,57,14.10
2015,06,19,03,58,14.10
2015,06,19,03,59,14.10
2015,06,19,04,00,14.10
2015,06,19,04,01,14.10
2015,06,19,04,02,14.10
2015,06,19,04,03,14.10
2015,06,19,04,04,14.10
2015,06,19,04,05,14.10
2015,06,19,04,06,14.10
2015,06,19,04,07,14.10
2015,06,19,04,08,14.10
2015,06,19,04,09,14.10
2015,06,19,04,10,14.10
2015,06,19,04,11,14.10
2015,06,19,04,12,14.10
2015,06,19,04,13,14.10
2015,06,19,04,14,14.10
2015,06,19,04,15,14.10
2015,06,19,04,16,14.10
2015,06,19,04,17,14.10
2015,06,19,04,18,14.10
2015,06,19,04,19,14.10
2015,06,19,04,20,14.00
2015,06,19,04,21,14.00
2015,06,19,04,22,13.90
2015,06,19,04,23,13.90
2015,06,19,04,24,13.80
2015,06,19,04,25,13.80
2015,06,19,04,26,13.80
2015,06,19,04,27,13.70
2015,06,19,04,28,13.60
2015,06,19,04,29,13.60
2015,06,19,04,30,13.50
2015,06,19,04,31,13.50
2015,06,19,04,32,13.40
2015,06,19,04,33,13.30
2015,06,19,04,34,13.20
2015,06,19,04,35,13.20
2015,06,19,04,36,13.10
2015,06,19,04,37,13.10
2015,06,19,04,38,13.10
2015,06,19,04,39,13.10
2015,06,19,04,40,13.00
2015,06,19,04,41,13.00
2015,06,19,04,42,13.00
2015,06,19,04,43,12.90
2015,06,19,04,44,12.90
2015,06,19,04,45,12.80
2015,06,19,04,46,12.80
2015,06,19,04,47,12.80
2015,06,19,04,48,12.80
2015,06,19,04,49,12.80
2015,06,19,04,50,12.80
2015,06,19,04,51,12.70
2015,06,19,04,52,12.70
2015,06,19,04,53,12.70
2015,06,19,04,54,12.70
2015,06,19,04,55,12.70
2015,06,19,04,56,12.70
2015,06,19,04,57,12.70
2015,06,19,04,58,12.60
2015,06,19,04,59,12.60
2015,06,19,05,00,12.60
2015,06,19,05,01,12.60
2015,06,19,05,02,12.60
2015,06,19,05,03,12.60
2015,06,19,05,04,12.50
2015,06,19,05,05,12.50
2015,06,19,05,06,12.40
2015,06,19,05,07,12.30
2015,06,19,05,08,12.30
2015,06,19,05,09,12.20
2015,06,19,05,10,12.20
2015,06,19,05,11,12.20
2015,06,19,05,12,12.10
2015,06,19,05,13,12.10
2015,06,19,05,14,12.00
2015,06,19,05,15,12.00
2015,06,19,05,16,12.00
2015,06,19,05,17,12.00
2015,06,19,05,18,11.90
2015,06,19,05,19,11.90
2015,06,19,05,20,11.90
2015,06,19,05,21,11.80
2015,06,19,05,22,11.80
2015,06,19,05,23,11.80
2015,06,19,05,24,11.70
2015,06,19,05,25,11.70
2015,06,19,05,26,11.70
2015,06,19,05,27,11.70
2015,06,19,05,28,11.60
2015,06,19,05,29,11.60
2015,06,19,05,30,11.60
2015,06,19,05,31,11.60
2015,06,19,05,32,11.60
2015,06,19,05,33,11.60
2015,06,19,05,34,11.60
2015,06,19,05,35,11.60
2015,06,19,05,36,11.60
2015,06,19,05,37,11.50
2015,06,19,05,38,11.50
2015,06,19,05,39,11.50
2015,06,19,05,40,11.60
2015,06,19,05,41,11.60
2015,06,19,05,42,11.60
2015,06,19,05,43,11.60
2015,06,19,05,44,11.60
2015,06,19,05,45,11.60
2015,06,19,05,46,11.70
2015,06,19,05,47,11.70
2015,06,19,05,48,11.70
2015,06,19,05,49,11.80
2015,06,19,05,50,11.80
2015,06,19,05,51,11.80
2015,06,19,05,52,11.80
2015,06,19,05,53,11.80
2015,06,19,05,54,11.80
2015,06,19,05,55,11.80
2015,06,19,05,56,11.80
2015,06,19,05,57,11.80
2015,06,19,05,58,11.80
2015,06,19,05,59,11.80
2015,06,19,06,00,11.80
2015,06,19,06,01,11.80
2015,06,19,06,02,11.80
2015,06,19,06,03,11.80
2015,06,19,06,04,11.80
2015,06,19,06,05,11.80
2015,06,19,06,06,11.80
2015,06,19,06,07,11.70
2015,06,19,06,08,11.70
2015,06,19,06,09,11.70
2015,06,19,06,10,11.70
2015,06,19,06,11,11.70
2015,06,19,06,12,11.70
2015,06,19,06,13,11.70
2015,06,19,06,14,11.70
2015,06,19,06,15,11.70
2015,06,19,06,16,11.70
2015,06,19,06,17,11.70
2015,06,19,06,18,11.70
2015,06,19,06,19,11.80
2015,06,19,06,20,11.80
2015,06,19,06,21,11.80
2015,06,19,06,22,11.90
2015,06,19,06,23,11.90
2015,06,19,06,24,12.00
2015,06,19,06,25,12.10
2015,06,19,06,26,12.10
2015,06,19,06,27,12.20
2015,06,19,06,28,12.30
2015,06,19,06,29,12.40
2015,06,19,06,30,12.50
2015,06,19,06,31,12.60
2015,06,19,06,32,12.70
2015,06,19,06,33,12.70
2015,06,19,06,34,12.80
2015,06,19,06,35,12.90
2015,06,19,06,36,12.90
2015,06,19,06,37,13.00
2015,06,19,06,38,13.10
2015,06,19,06,39,13.10
2015,06,19,06,40,13.20
2015,06,19,06,41,13.30
2015,06,19,06,42,13.40
2015,06,19,06,43,13.50
2015,06,19,06,44,13.60
2015,06,19,06,45,13.60
2015,06,19,06,46,13.70
2015,06,19,06,47,13.80
2015,06,19,06,48,13.80
2015,06,19,06,49,13.90
2015,06,19,06,50,13.90
2015,06,19,06,51,14.00
2015,06,19,06,52,14.00
2015,06,19,06,53,14.00
2015,06,19,06,54,14.10
2015,06,19,06,55,14.10
2015,06,19,06,56,14.10
2015,06,19,06,57,14.20
2015,06,19,06,58,14.20
2015,06,19,06,59,14.20
2015,06,19,07,00,14.20
2015,06,19,07,01,14.30
2015,06,19,07,02,14.30
2015,06,19,07,03,14.30
2015,06,19,07,04,14.30
2015,06,19,07,05,14.30
2015,06,19,07,06,14.30
2015,06,19,07,07,14.40
2015,06,19,07,08,14.40
2015,06,19,07,09,14.50
2015,06,19,07,10,14.50
2015,06,19,07,11,14.50
2015,06,19,07,12,14.60
2015,06,19,07,13,14.60
2015,06,19,07,14,14.60
2015,06,19,07,15,14.60
2015,06,19,07,16,14.70
2015,06,19,07,17,14.70
2015,06,19,07,18,14.70
2015,06,19,07,19,14.70
2015,06,19,07,20,14.70
2015,06,19,07,21,14.70
2015,06,19,07,22,14.70
2015,06,19,07,23,14.80
2015,06,19,07,24,14.80
2015,06,19,07,25,14.80
2015,06,19,07,26,14.80
2015,06,19,07,27,14.90
2015,06,19,07,28,14.90
2015,06,19,07,29,15.00
2015,06,19,07,30,15.00
2015,06,19,07,31,15.00
2015,06,19,07,32,15.00
2015,06,19,07,33,15.00
2015,06,19,07,34,14.90
2015,06,19,07,35,14.90
2015,06,19,07,36,14.80
2015,06,19,07,37,14.80
2015,06,19,07,38,14.70
2015,06,19,07,39,14.70
2015,06,19,07,40,14.70
2015,06,19,07,41,14.70
2015,06,19,07,42,14.80
2015,06,19,07,43,14.80
2015,06,19,07,44,14.90
2015,06,19,07,45,14.90
2015,06,19,07,46,14.90
2015,06,19,07,47,14.90
2015,06,19,07,48,15.00
2015,06,19,07,49,15.00
2015,06,19,07,50,15.00
2015,06,19,07,51,15.10
2015,06,19,07,52,15.10
2015,06,19,07,53,15.10
2015,06,19,07,54,15.20
2015,06,19,07,55,15.20
2015,06,19,07,56,15.20
2015,06,19,07,57,15.20
2015,06,19,07,58,15.20
2015,06,19,07,59,15.20
2015,06,19,08,00,15.20
2015,06,19,08,01,15.20
2015,06,19,08,02,15.30
2015,06,19,08,03,15.30
2015,06,19,08,04,15.30
2015,06,19,08,05,15.40
2015,06,19,08,06,15.50
2015,06,19,08,07,15.60
2015,06,19,08,08,15.60
2015,06,19,08,09,15.60
2015,06,19,08,10,15.60
2015,06,19,08,11,15.60
2015,06,19,08,12,15.60
2015,06,19,08,13,15.60
2015,06,19,08,14,15.60
2015,06,19,08,15,15.60
2015,06,19,08,16,15.70
2015,06,19,08,17,15.70
2015,06,19,08,18,15.70
2015,06,19,08,19,15.70
2015,06,19,08,20,15.70
2015,06,19,08,21,15.80
2015,06,19,08,22,15.80
2015,06,19,08,23,15.80
2015,06,19,08,24,15.90
2015,06,19,08,25,15.90
2015,06,19,08,26,15.80
2015,06,19,08,27,15.80
2015,06,19,08,28,15.80
2015,06,19,08,29,15.90
2015,06,19,08,30,15.90
2015,06,19,08,31,15.90
2015,06,19,08,32,15.90
2015,06,19,08,33,15.90
2015,06,19,08,34,15.90
2015,06,19,08,35,16.00
2015,06,19,08,36,15.90
2015,06,19,08,37,15.90
2015,06,19,08,38,15.90
2015,06,19,08,39,15.90
2015,06,19,08,40,16.00
2015,06,19,08,41,16.00
2015,06,19,08,42,16.10
2015,06,19,08,43,16.10
2015,06,19,08,44,16.10
2015,06,19,08,45,16.10
2015,06,19,08,46,16.10
2015,06,19,08,47,16.10
2015,06,19,08,48,16.10
2015,06,19,08,49,16.10
2015,06,19,08,50,16.10
2015,06,19,08,51,16.10
2015,06,19,08,52,16.00
2015,06,19,08,53,16.00
2015,06,19,08,54,16.10
2015,06,19,08,55,16.10
2015,06,19,08,56,16.10
2015,06,19,08,57,16.10
2015,06,19,08,58,16.10
2015,06,19,08,59,16.10
2015,06,19,09,00,16.10
2015,06,19,09,01,16.10
2015,06,19,09,02,16.20
2015,06,19,09,03,16.20
2015,06,19,09,04,16.20
2015,06,19,09,05,16.20
2015,06,19,09,06,16.20
2015,06,19,09,07,16.30
2015,06,19,09,08,16.30
2015,06,19,09,09,16.30
2015,06,19,09,10,16.30
2015,06,19,09,11,16.40
2015,06,19,09,12,16.40
2015,06,19,09,13,16.40
2015,06,19,09,14,16.40
2015,06,19,09,15,16.40
2015,06,19,09,16,16.40
2015,06,19,09,17,16.40
2015,06,19,09,18,16.30
2015,06,19,09,19,16.40
2015,06,19,09,20,16.40
2015,06,19,09,21,16.40
2015,06,19,09,22,16.40
2015,06,19,09,23,16.40
2015,06,19,09,24,16.30
2015,06,19,09,25,16.30
2015,06,19,09,26,16.30
2015,06,19,09,27,16.30
2015,06,19,09,28,16.30
2015,06,19,09,29,16.30
2015,06,19,09,30,16.30
2015,06,19,09,31,16.40
2015,06,19,09,32,16.40
2015,06,19,09,33,16.50
2015,06,19,09,34,16.50
2015,06,19,09,35,16.60
2015,06,19,09,36,16.60
2015,06,19,09,37,16.60
2015,06,19,09,38,16.70
2015,06,19,09,39,16.70
2015,06,19,09,40,16.70
2015,06,19,09,41,16.70
2015,06,19,09,42,16.70
2015,06,19,09,43,16.70
2015,06,19,09,44,16.80
2015,06,19,09,45,16.80
2015,06,19,09,46,16.80
2015,06,19,09,47,16.80
2015,06,19,09,48,16.80
2015,06,19,09,49,16.80
2015,06,19,09,50,16.80
2015,06,19,09,51,16.70
2015,06,19,09,52,16.70
2015,06,19,09,53,16.70
2015,06,19,09,54,16.80
2015,06,19,09,55,16.80
2015,06,19,09,56,16.80
2015,06,19,09,57,16.70
2015,06,19,09,58,16.70
2015,06,19,09,59,16.60
2015,06,19,10,00,16.60
2015,06,19,10,01,16.60
2015,06,19,10,02,16.60
2015,06,19,10,03,16.60
2015,06,19,10,04,16.60
2015,06,19,10,05,16.70
2015,06,19,10,06,16.70
2015,06,19,10,07,16.80
2015,06,19,10,08,16.90
2015,06,19,10,09,16.90
2015,06,19,10,10,17.00
2015,06,19,10,11,17.10
2015,06,19,10,12,17.20
2015,06,19,10,13,17.30
2015,06,19,10,14,17.40
2015,06,19,10,15,17.50
2015,06,19,10,16,17.50
2015,06,19,10,17,17.50
2015,06,19,10,18,17.50
2015,06,19,10,19,17.60
2015,06,19,10,20,17.60
2015,06,19,10,21,17.60
2015,06,19,10,22,17.60
2015,06,19,10,23,17.60
2015,06,19,10,24,17.60
2015,06,19,10,25,17.60
2015,06,19,10,26,17.60
2015,06,19,10,27,17.60
2015,06,19,10,28,17.60
2015,06,19,10,29,17.60
2015,06,19,10,30,17.70
2015,06,19,10,31,17.70
2015,06,19,10,32,17.70
2015,06,19,10,33,17.70
2015,06,19,10,34,17.80
2015,06,19,10,35,17.80
2015,06,19,10,36,17.80
2015,06,19,10,37,17.80
2015,06,19,10,38,17.80
2015,06,19,10,39,17.70
2015,06,19,10,40,17.70
2015,06,19,10,41,17.60
2015,06,19,10,42,17.60
2015,06,19,10,43,17.60
2015,06,19,10,44,17.60
2015,06,19,10,45,17.60
2015,06,19,10,46,17.60
2015,06,19,10,47,17.60
2015,06,19,10,48,17.60
2015,06,19,10,49,17.60
2015,06,19,10,50,17.60
2015,06,19,10,51,17.60
2015,06,19,10,52,17.60
2015,06,19,10,53,17.60
2015,06,19,10,54,17.60
2015,06,19,10,55,17.60
2015,06,19,10,56,17.60
2015,06,19,10,57,17.60
2015,06,19,10,58,17.60
2015,06,19,10,59,17.60
2015,06,19,11,00,17.70
2015,06,19,11,01,17.70
2015,06,19,11,02,17.70
2015,06,19,11,03,17.70
2015,06,19,11,04,17.70
2015,06,19,11,05,17.70
2015,06,19,11,06,17.70
2015,06,19,11,07,17.70
2015,06,19,11,08,17.70
2015,06,19,11,09,17.70
2015,06,19,11,10,17.70
2015,06,19,11,11,17.60
2015,06,19,11,12,17.60
2015,06,19,11,13,17.60
2015,06,19,11,14,17.60
2015,06,19,11,15,17.60
2015,06,19,11,16,17.60
2015,06,19,11,17,17.60
2015,06,19,11,18,17.60
2015,06,19,11,19,17.60
2015,06,19,11,20,17.60
2015,06,19,11,21,17.70
2015,06,19,11,22,17.70
2015,06,19,11,23,17.70
2015,06,19,11,24,17.80
2015,06,19,11,25,17.90
2015,06,19,11,26,17.90
2015,06,19,11,27,18.00
2015,06,19,11,28,18.10
2015,06,19,11,29,18.20
2015,06,19,11,30,18.30
2015,06,19,11,31,18.40
2015,06,19,11,32,18.50
2015,06,19,11,33,18.50
2015,06,19,11,34,18.50
2015,06,19,11,35,18.50
2015,06,19,11,36,18.50
2015,06,19,11,37,18.60
2015,06,19,11,38,18.70
2015,06,19,11,39,18.80
2015,06,19,11,40,18.80
2015,06,19,11,41,18.80
2015,06,19,11,42,18.80
2015,06,19,11,43,18.70
2015,06,19,11,44,18.70
2015,06,19,11,45,18.70
2015,06,19,11,46,18.60
2015,06,19,11,47,18.60
2015,06,19,11,48,18.60
2015,06,19,11,49,18.70
2015,06,19,11,50,18.70
2015,06,19,11,51,18.70
2015,06,19,11,52,18.60
2015,06,19,11,53,18.60
2015,06,19,11,54,18.50
2015,06,19,11,55,18.40
2015,06,19,11,56,18.30
2015,06,19,11,57,18.30
2015,06,19,11,58,18.20
2015,06,19,11,59,18.20
2015,06,19,12,00,18.10
2015,06,19,12,01,18.10
2015,06,19,12,02,18.10
2015,06,19,12,03,18.10
2015,06,19,12,04,18.10
2015,06,19,12,05,18.10
2015,06,19,12,06,18.10
2015,06,19,12,07,18.10
2015,06,19,12,08,18.10
2015,06,19,12,09,18.00
2015,06,19,12,10,18.00
2015,06,19,12,11,18.10
2015,06,19,12,12,18.10
2015,06,19,12,13,18.10
2015,06,19,12,14,18.10
2015,06,19,12,15,18.10
2015,06,19,12,16,18.10
2015,06,19,12,17,18.20
2015,06,19,12,18,18.20
2015,06,19,12,19,18.30
2015,06,19,12,20,18.30
2015,06,19,12,21,18.40
2015,06,19,12,22,18.50
2015,06,19,12,23,18.50
2015,06,19,12,24,18.50
2015,06,19,12,25,18.50
2015,06,19,12,26,18.40
2015,06,19,12,27,18.40
2015,06,19,12,28,18.30
2015,06,19,12,29,18.30
2015,06,19,12,30,18.30
2015,06,19,12,31,18.40
2015,06,19,12,32,18.40
2015,06,19,12,33,18.50
2015,06,19,12,34,18.60
2015,06,19,12,35,18.70
2015,06,19,12,36,18.70
2015,06,19,12,37,18.80
2015,06,19,12,38,18.70
2015,06,19,12,39,18.70
2015,06,19,12,40,18.70
2015,06,19,12,41,18.80
2015,06,19,12,42,18.80
2015,06,19,12,43,18.80
2015,06,19,12,44,18.80
2015,06,19,12,45,18.80
2015,06,19,12,46,18.80
2015,06,19,12,47,18.80
2015,06,19,12,48,18.80
2015,06,19,12,49,18.80
2015,06,19,12,50,18.80
2015,06,19,12,51,18.80
2015,06,19,12,52,18.80
2015,06,19,12,53,18.80
2015,06,19,12,54,18.80
2015,06,19,12,55,18.90
2015,06,19,12,56,18.90
2015,06,19,12,57,19.00
2015,06,19,12,58,19.10
2015,06,19,12,59,19.20
2015,06,19,13,00,19.30
2015,06,19,13,01,19.30
2015,06,19,13,02,19.20
2015,06,19,13,03,19.20
2015,06,19,13,04,19.20
2015,06,19,13,05,19.20
2015,06,19,13,06,19.30
2015,06,19,13,07,19.30
2015,06,19,13,08,19.30
2015,06,19,13,09,19.30
2015,06,19,13,10,19.30
2015,06,19,13,11,19.40
2015,06,19,13,12,19.40
2015,06,19,13,13,19.40
2015,06,19,13,14,19.30
2015,06,19,13,15,19.20
2015,06,19,13,16,19.10
2015,06,19,13,17,19.10
2015,06,19,13,18,19.00
2015,06,19,13,19,18.90
2015,06,19,13,20,18.90
2015,06,19,13,21,18.90
2015,06,19,13,22,18.90
2015,06,19,13,23,18.90
2015,06,19,13,24,18.90
2015,06,19,13,25,18.90
2015,06,19,13,26,18.80
2015,06,19,13,27,18.80
2015,06,19,13,28,18.80
2015,06,19,13,29,18.80
2015,06,19,13,30,18.80
2015,06,19,13,31,18.80
2015,06,19,13,32,18.80
2015,06,19,13,33,18.80
2015,06,19,13,34,18.80
2015,06,19,13,35,18.80
2015,06,19,13,36,18.80
2015,06,19,13,37,18.80
2015,06,19,13,38,18.80
2015,06,19,13,39,18.80
2015,06,19,13,40,18.80
2015,06,19,13,41,18.80
2015,06,19,13,42,18.80
2015,06,19,13,43,18.80
2015,06,19,13,44,18.80
2015,06,19,13,45,18.80
2015,06,19,13,46,18.80
2015,06,19,13,47,18.80
2015,06,19,13,48,18.80
2015,06,19,13,49,18.90
2015,06,19,13,50,18.90
2015,06,19,13,51,19.00
2015,06,19,13,52,19.10
2015,06,19,13,53,19.10
2015,06,19,13,54,19.10
2015,06,19,13,55,19.10
2015,06,19,13,56,19.10
2015,06,19,13,57,19.10
2015,06,19,13,58,19.10
2015,06,19,13,59,19.10
2015,06,19,14,00,19.10
2015,06,19,14,01,19.10
2015,06,19,14,02,19.20
2015,06,19,14,03,19.20
2015,06,19,14,04,19.20
2015,06,19,14,05,19.20
2015,06,19,14,06,19.20
2015,06,19,14,07,19.30
2015,06,19,14,08,19.30
2015,06,19,14,09,19.30
2015,06,19,14,10,19.30
2015,06,19,14,11,19.20
2015,06,19,14,12,19.20
2015,06,19,14,13,19.10
2015,06,19,14,14,19.10
2015,06,19,14,15,19.10
2015,06,19,14,16,19.20
2015,06,19,14,17,19.20
2015,06,19,14,18,19.20
2015,06,19,14,19,19.10
2015,06,19,14,20,19.10
2015,06,19,14,21,19.10
2015,06,19,14,22,19.10
2015,06,19,14,23,19.10
2015,06,19,14,24,19.10
2015,06,19,14,25,19.20
2015,06,19,14,26,19.20
2015,06,19,14,27,19.30
2015,06,19,14,28,19.40
2015,06,19,14,29,19.60
2015,06,19,14,30,19.70
2015,06,19,14,31,19.90
2015,06,19,14,32,20.00
2015,06,19,14,33,20.10
2015,06,19,14,34,20.10
2015,06,19,14,35,20.20
2015,06,19,14,36,20.20
2015,06,19,14,37,20.10
2015,06,19,14,38,20.00
2015,06,19,14,39,19.90
2015,06,19,14,40,19.90
2015,06,19,14,41,19.80
2015,06,19,14,42,19.80
2015,06,19,14,43,19.80
2015,06,19,14,44,19.80
2015,06,19,14,45,19.80
2015,06,19,14,46,19.70
2015,06,19,14,47,19.70
2015,06,19,14,48,19.60
2015,06,19,14,49,19.60
2015,06,19,14,50,19.60
2015,06,19,14,51,19.60
2015,06,19,14,52,19.60
2015,06,19,14,53,19.70
2015,06,19,14,54,19.80
2015,06,19,14,55,19.80
2015,06,19,14,56,19.80
2015,06,19,14,57,19.90
2015,06,19,14,58,19.90
2015,06,19,14,59,19.80
2015,06,19,15,00,19.80
2015,06,19,15,01,19.80
2015,06,19,15,02,19.80
2015,06,19,15,03,19.80
2015,06,19,15,04,19.70
2015,06,19,15,05,19.70
2015,06,19,15,06,19.70
2015,06,19,15,07,19.70
2015,06,19,15,08,19.70
2015,06,19,15,09,19.60
2015,06,19,15,10,19.70
2015,06,19,15,11,19.70
2015,06,19,15,12,19.70
2015,06,19,15,13,19.70
2015,06,19,15,14,19.70
2015,06,19,15,15,19.70
2015,06,19,15,16,19.80
2015,06,19,15,17,19.80
2015,06,19,15,18,19.80
2015,06,19,15,19,19.80
2015,06,19,15,20,19.70
2015,06,19,15,21,19.70
2015,06,19,15,22,19.70
2015,06,19,15,23,19.80
2015,06,19,15,24,20.00
2015,06,19,15,25,20.20
2015,06,19,15,26,20.30
2015,06,19,15,27,20.30
2015,06,19,15,28,20.30
2015,06,19,15,29,20.30
2015,06,19,15,30,20.20
2015,06,19,15,31,20.00
2015,06,19,15,32,19.90
2015,06,19,15,33,19.80
2015,06,19,15,34,19.90
2015,06,19,15,35,19.80
2015,06,19,15,36,19.70
2015,06,19,15,37,19.70
2015,06,19,15,38,19.70
2015,06,19,15,39,19.60
2015,06,19,15,40,19.60
2015,06,19,15,41,19.60
2015,06,19,15,42,19.60
2015,06,19,15,43,19.50
2015,06,19,15,44,19.50
2015,06,19,15,45,19.50
2015,06,19,15,46,19.50
2015,06,19,15,47,19.60
2015,06,19,15,48,19.50
2015,06,19,15,49,19.50
2015,06,19,15,50,19.60
2015,06,19,15,51,19.70
2015,06,19,15,52,19.70
2015,06,19,15,53,19.80
2015,06,19,15,54,19.80
2015,06,19,15,55,19.80
2015,06,19,15,56,19.80
2015,06,19,15,57,19.90
2015,06,19,15,58,19.90
2015,06,19,15,59,19.90
2015,06,19,16,00,19.80
2015,06,19,16,01,19.80
2015,06,19,16,02,19.80
2015,06,19,16,03,19.80
2015,06,19,16,04,19.80
2015,06,19,16,05,19.70
2015,06,19,16,06,19.70
2015,06,19,16,07,19.60
2015,06,19,16,08,19.50
2015,06,19,16,09,19.40
2015,06,19,16,10,19.30
2015,06,19,16,11,19.20
2015,06,19,16,12,19.10
2015,06,19,16,13,19.10
2015,06,19,16,14,19.10
2015,06,19,16,15,19.10
2015,06,19,16,16,19.10
2015,06,19,16,17,19.20
2015,06,19,16,18,19.20
2015,06,19,16,19,19.20
2015,06,19,16,20,19.20
2015,06,19,16,21,19.20
2015,06,19,16,22,19.30
2015,06,19,16,23,19.30
2015,06,19,16,24,19.30
2015,06,19,16,25,19.30
2015,06,19,16,26,19.30
2015,06,19,16,27,19.30
2015,06,19,16,28,19.30
2015,06,19,16,29,19.30
2015,06,19,16,30,19.30
2015,06,19,16,31,19.30
2015,06,19,16,32,19.30
2015,06,19,16,33,19.20
2015,06,19,16,34,19.30
2015,06,19,16,35,19.30
2015,06,19,16,36,19.30
2015,06,19,16,37,19.30
2015,06,19,16,38,19.30
2015,06,19,16,39,19.30
2015,06,19,16,40,19.30
2015,06,19,16,41,19.30
2015,06,19,16,42,19.30
2015,06,19,16,43,19.40
2015,06,19,16,44,19.30
2015,06,19,16,45,19.30
2015,06,19,16,46,19.30
2015,06,19,16,47,19.20
2015,06,19,16,48,19.20
2015,06,19,16,49,19.20
2015,06,19,16,50,19.20
2015,06,19,16,51,19.20
2015,06,19,16,52,19.20
2015,06,19,16,53,19.20
2015,06,19,16,54,19.20
2015,06,19,16,55,19.20
2015,06,19,16,56,19.20
2015,06,19,16,57,19.20
2015,06,19,16,58,19.20
2015,06,19,16,59,19.20
2015,06,19,17,00,19.20
2015,06,19,17,01,19.20
2015,06,19,17,02,19.20
2015,06,19,17,03,19.20
2015,06,19,17,04,19.10
2015,06,19,17,05,19.10
2015,06,19,17,06,19.10
2015,06,19,17,07,19.10
2015,06,19,17,08,19.10
2015,06,19,17,09,19.10
2015,06,19,17,10,19.10
2015,06,19,17,11,19.10
2015,06,19,17,12,19.10
2015,06,19,17,13,19.10
2015,06,19,17,14,19.00
2015,06,19,17,15,19.00
2015,06,19,17,16,19.00
2015,06,19,17,17,19.00
2015,06,19,17,18,18.90
2015,06,19,17,19,18.90
2015,06,19,17,20,18.90
2015,06,19,17,21,18.80
2015,06,19,17,22,18.80
2015,06,19,17,23,18.80
2015,06,19,17,24,18.80
2015,06,19,17,25,18.80
2015,06,19,17,26,18.80
2015,06,19,17,27,18.80
2015,06,19,17,28,18.80
2015,06,19,17,29,18.80
2015,06,19,17,30,18.80
2015,06,19,17,31,18.80
2015,06,19,17,32,18.70
2015,06,19,17,33,18.70
2015,06,19,17,34,18.70
2015,06,19,17,35,18.70
2015,06,19,17,36,18.70
2015,06,19,17,37,18.70
2015,06,19,17,38,18.70
2015,06,19,17,39,18.80
2015,06,19,17,40,18.80
2015,06,19,17,41,18.80
2015,06,19,17,42,18.80
2015,06,19,17,43,18.80
2015,06,19,17,44,18.80
2015,06,19,17,45,18.80
2015,06,19,17,46,18.80
2015,06,19,17,47,18.80
2015,06,19,17,48,18.80
2015,06,19,17,49,18.80
2015,06,19,17,50,18.80
2015,06,19,17,51,18.80
2015,06,19,17,52,18.80
2015,06,19,17,53,18.80
2015,06,19,17,54,18.80
2015,06,19,17,55,18.80
2015,06,19,17,56,18.80
2015,06,19,17,57,18.80
2015,06,19,17,58,18.70
2015,06,19,17,59,18.70
2015,06,19,18,00,18.60
2015,06,19,18,01,18.50
2015,06,19,18,02,18.50
2015,06,19,18,03,18.50
2015,06,19,18,04,18.50
2015,06,19,18,05,18.40
2015,06,19,18,06,18.40
2015,06,19,18,07,18.40
2015,06,19,18,08,18.40
2015,06,19,18,09,18.40
2015,06,19,18,10,18.40
2015,06,19,18,11,18.40
2015,06,19,18,12,18.40
2015,06,19,18,13,18.40
2015,06,19,18,14,18.30
2015,06,19,18,15,18.30
2015,06,19,18,16,18.30
2015,06,19,18,17,18.30
2015,06,19,18,18,18.30
2015,06,19,18,19,18.30
2015,06,19,18,20,18.30
2015,06,19,18,21,18.30
2015,06,19,18,22,18.40
2015,06,19,18,23,18.40
2015,06,19,18,24,18.50
2015,06,19,18,25,18.50
2015,06,19,18,26,18.60
2015,06,19,18,27,18.60
2015,06,19,18,28,18.70
2015,06,19,18,29,18.80
2015,06,19,18,30,18.80
2015,06,19,18,31,18.70
2015,06,19,18,32,18.60
2015,06,19,18,33,18.60
2015,06,19,18,34,18.60
2015,06,19,18,35,18.50
2015,06,19,18,36,18.50
2015,06,19,18,37,18.40
2015,06,19,18,38,18.40
2015,06,19,18,39,18.40
2015,06,19,18,40,18.30
2015,06,19,18,41,18.30
2015,06,19,18,42,18.30
2015,06,19,18,43,18.20
2015,06,19,18,44,18.20
2015,06,19,18,45,18.20
2015,06,19,18,46,18.20
2015,06,19,18,47,18.20
2015,06,19,18,48,18.20
2015,06,19,18,49,18.20
2015,06,19,18,50,18.30
2015,06,19,18,51,18.30
2015,06,19,18,52,18.30
2015,06,19,18,53,18.30
2015,06,19,18,54,18.30
2015,06,19,18,55,18.20
2015,06,19,18,56,18.20
2015,06,19,18,57,18.20
2015,06,19,18,58,18.20
2015,06,19,18,59,18.20
2015,06,19,19,00,18.20
2015,06,19,19,01,18.20
2015,06,19,19,02,18.20
2015,06,19,19,03,18.10
2015,06,19,19,04,18.10
2015,06,19,19,05,18.10
2015,06,19,19,06,18.00
2015,06,19,19,07,18.00
2015,06,19,19,08,18.10
2015,06,19,19,09,18.10
2015,06,19,19,10,18.10
2015,06,19,19,11,18.20
2015,06,19,19,12,18.20
2015,06,19,19,13,18.20
2015,06,19,19,14,18.20
2015,06,19,19,15,18.30
2015,06,19,19,16,18.30
2015,06,19,19,17,18.20
2015,06,19,19,18,18.20
2015,06,19,19,19,18.30
2015,06,19,19,20,18.30
2015,06,19,19,21,18.20
2015,06,19,19,22,18.20
2015,06,19,19,23,18.20
2015,06,19,19,24,18.20
2015,06,19,19,25,18.20
2015,06,19,19,26,18.30
2015,06,19,19,27,18.30
2015,06,19,19,28,18.30
2015,06,19,19,29,18.30
2015,06,19,19,30,18.30
2015,06,19,19,31,18.30
2015,06,19,19,32,18.30
2015,06,19,19,33,18.30
2015,06,19,19,34,18.30
2015,06,19,19,35,18.20
2015,06,19,19,36,18.20
2015,06,19,19,37,18.20
2015,06,19,19,38,18.20
2015,06,19,19,39,18.30
2015,06,19,19,40,18.30
2015,06,19,19,41,18.30
2015,06,19,19,42,18.30
2015,06,19,19,43,18.30
2015,06,19,19,44,18.30
2015,06,19,19,45,18.30
2015,06,19,19,46,18.30
2015,06,19,19,47,18.30
2015,06,19,19,48,18.30
2015,06,19,19,49,18.30
2015,06,19,19,50,18.20
2015,06,19,19,51,18.10
2015,06,19,19,52,18.10
2015,06,19,19,53,18.00
2015,06,19,19,54,17.90
2015,06,19,19,55,17.90
2015,06,19,19,56,17.80
2015,06,19,19,57,17.90
2015,06,19,19,58,17.90
2015,06,19,19,59,17.90
2015,06,19,20,00,17.90
2015,06,19,20,01,17.90
2015,06,19,20,02,17.90
2015,06,19,20,03,17.90
2015,06,19,20,04,17.90
2015,06,19,20,05,18.00
2015,06,19,20,06,18.00
2015,06,19,20,07,18.00
2015,06,19,20,08,18.00
2015,06,19,20,09,18.00
2015,06,19,20,10,18.00
2015,06,19,20,11,17.90
2015,06,19,20,12,17.80
2015,06,19,20,13,17.70
2015,06,19,20,14,17.70
2015,06,19,20,15,17.60
2015,06,19,20,16,17.60
2015,06,19,20,17,17.60
2015,06,19,20,18,17.60
2015,06,19,20,19,17.50
2015,06,19,20,20,17.50
2015,06,19,20,21,17.50
2015,06,19,20,22,17.40
2015,06,19,20,23,17.40
2015,06,19,20,24,17.50
2015,06,19,20,25,17.50